FD251 YSBK-YSCB

Flight info

Callsign FD251
Flight time 0h 33m
Altitude 16000
Route BK DCT PEGSU V169 CB
Aircraft B350/L-SBGRW/S

Departure

Time 2026-04-26 11:15
Airport Sydney Bankstown Airport (YSBK)

Arrival

Time 2026-04-26 11:49
Airport Canberra Airport (YSCB)
Time Latitude Longitude Altitude Speed Heading
2026-04-26 11:07 -33.91896 150.99564 30 ft 0 kts 51°
2026-04-26 11:12 -33.91903 150.99582 30 ft 11 kts 160°
2026-04-26 11:13 -33.91939 150.99510 30 ft 19 kts 262°
2026-04-26 11:13 -33.91985 150.99320 30 ft 26 kts 250°
2026-04-26 11:13 -33.92053 150.99104 30 ft 29 kts 242°
2026-04-26 11:13 -33.92182 150.99108 30 ft 26 kts 114°
2026-04-26 11:14 -33.92289 150.99300 30 ft 29 kts 122°
2026-04-26 11:14 -33.92406 150.99508 30 ft 31 kts 123°
2026-04-26 11:14 -33.92532 150.99568 33 ft 22 kts 220°
2026-04-26 11:14 -33.92578 150.99468 30 ft 0 kts 306°
2026-04-26 11:15 -33.92529 150.99378 30 ft 28 kts 303°
2026-04-26 11:15 -33.92236 150.98833 72 ft 113 kts 302°
2026-04-26 11:15 -33.92137 150.97895 619 ft 125 kts 246°
2026-04-26 11:15 -33.92950 150.97393 1053 ft 140 kts 188°
2026-04-26 11:16 -33.93784 150.97318 2065 ft 116 kts 180°
2026-04-26 11:16 -33.94702 150.97321 2408 ft 147 kts 183°
2026-04-26 11:16 -33.95840 150.97080 2569 ft 176 kts 204°
2026-04-26 11:16 -33.96946 150.96476 3192 ft 173 kts 205°
2026-04-26 11:17 -33.98054 150.95926 3810 ft 171 kts 203°
2026-04-26 11:17 -33.99157 150.95387 4429 ft 170 kts 203°
2026-04-26 11:17 -34.00248 150.94851 5039 ft 169 kts 204°
2026-04-26 11:17 -34.01320 150.94322 5654 ft 168 kts 204°
2026-04-26 11:18 -34.02401 150.93787 6271 ft 167 kts 204°
2026-04-26 11:18 -34.03476 150.93255 6886 ft 167 kts 204°
2026-04-26 11:18 -34.04546 150.92725 7497 ft 166 kts 204°
2026-04-26 11:18 -34.05614 150.92197 8115 ft 165 kts 204°
2026-04-26 11:19 -34.06680 150.91668 8679 ft 170 kts 204°
2026-04-26 11:19 -34.07863 150.91062 8724 ft 200 kts 205°
2026-04-26 11:19 -34.09226 150.90368 8732 ft 221 kts 204°
2026-04-26 11:19 -34.10673 150.89651 8735 ft 234 kts 204°
2026-04-26 11:20 -34.12203 150.88895 8736 ft 241 kts 204°
2026-04-26 11:20 -34.13243 150.88380 8733 ft 245 kts 204°
2026-04-26 11:20 -34.15184 150.87067 9068 ft 233 kts 226°
2026-04-26 11:20 -34.16224 150.85638 9574 ft 222 kts 231°
2026-04-26 11:21 -34.17219 150.84259 10043 ft 215 kts 228°
2026-04-26 11:21 -34.18263 150.82989 10511 ft 211 kts 225°
2026-04-26 11:21 -34.19301 150.81762 10978 ft 208 kts 226°
2026-04-26 11:21 -34.20323 150.80540 11451 ft 205 kts 226°
2026-04-26 11:22 -34.21329 150.79327 11921 ft 204 kts 226°
2026-04-26 11:22 -34.22332 150.78118 12389 ft 203 kts 226°
2026-04-26 11:22 -34.23329 150.76917 12857 ft 202 kts 226°
2026-04-26 11:22 -34.24327 150.75716 13328 ft 202 kts 226°
2026-04-26 11:23 -34.25321 150.74518 13794 ft 202 kts 226°
2026-04-26 11:23 -34.26315 150.73320 14265 ft 202 kts 226°
2026-04-26 11:23 -34.27308 150.72122 14732 ft 202 kts 226°
2026-04-26 11:23 -34.28301 150.70924 15201 ft 202 kts 226°
2026-04-26 11:24 -34.29296 150.69723 15680 ft 202 kts 226°
2026-04-26 11:24 -34.30299 150.68513 15995 ft 211 kts 226°
2026-04-26 11:24 -34.31380 150.67192 15999 ft 230 kts 226°
2026-04-26 11:24 -34.32531 150.65792 16006 ft 243 kts 226°
2026-04-26 11:25 -34.33751 150.64319 16010 ft 252 kts 226°
2026-04-26 11:25 -34.35007 150.62802 16010 ft 258 kts 226°
2026-04-26 11:25 -34.36284 150.61255 16010 ft 262 kts 226°
2026-04-26 11:25 -34.37576 150.59690 16011 ft 264 kts 226°
2026-04-26 11:26 -34.38884 150.58106 16011 ft 266 kts 226°
2026-04-26 11:26 -34.40195 150.56516 16011 ft 267 kts 226°
2026-04-26 11:26 -34.41496 150.54939 16011 ft 268 kts 226°
2026-04-26 11:26 -34.42814 150.53340 16012 ft 268 kts 226°
2026-04-26 11:27 -34.44134 150.51737 16011 ft 269 kts 226°
2026-04-26 11:27 -34.45458 150.50131 16010 ft 269 kts 226°
2026-04-26 11:27 -34.46781 150.48523 16010 ft 269 kts 226°
2026-04-26 11:27 -34.48106 150.46914 16010 ft 269 kts 226°
2026-04-26 11:28 -34.49429 150.45304 16009 ft 270 kts 226°
2026-04-26 11:28 -34.50754 150.43694 16008 ft 270 kts 226°
2026-04-26 11:28 -34.52080 150.42079 16007 ft 270 kts 226°
2026-04-26 11:28 -34.53402 150.40471 16005 ft 270 kts 226°
2026-04-26 11:29 -34.54707 150.38880 16003 ft 270 kts 226°
2026-04-26 11:29 -34.56070 150.37220 16001 ft 270 kts 226°
2026-04-26 11:29 -34.57393 150.35606 15999 ft 270 kts 226°
2026-04-26 11:29 -34.58717 150.33991 15997 ft 270 kts 226°
2026-04-26 11:30 -34.60041 150.32374 15994 ft 270 kts 226°
2026-04-26 11:30 -34.60936 150.31282 15993 ft 270 kts 226°
2026-04-26 11:30 -34.62690 150.29139 15987 ft 270 kts 226°
2026-04-26 11:30 -34.64015 150.27503 15995 ft 273 kts 230°
2026-04-26 11:31 -34.65150 150.25639 15990 ft 276 kts 236°
2026-04-26 11:31 -34.66281 150.23736 15990 ft 279 kts 234°
2026-04-26 11:31 -34.67435 150.21840 15989 ft 280 kts 235°
2026-04-26 11:31 -34.68585 150.19935 15990 ft 281 kts 235°
2026-04-26 11:32 -34.69741 150.18008 15992 ft 282 kts 235°
2026-04-26 11:32 -34.70899 150.16082 15994 ft 282 kts 235°
2026-04-26 11:32 -34.72061 150.14148 15994 ft 282 kts 235°
2026-04-26 11:32 -34.73221 150.12215 15993 ft 283 kts 235°
2026-04-26 11:33 -34.74368 150.10305 15994 ft 283 kts 235°
2026-04-26 11:33 -34.75528 150.08370 15991 ft 283 kts 235°
2026-04-26 11:33 -34.76688 150.06434 15992 ft 283 kts 235°
2026-04-26 11:33 -34.77847 150.04498 15915 ft 285 kts 235°
2026-04-26 11:34 -34.78633 150.03179 15619 ft 293 kts 236°
2026-04-26 11:34 -34.79813 150.01173 15217 ft 291 kts 235°
2026-04-26 11:34 -34.81012 149.99184 14827 ft 290 kts 234°
2026-04-26 11:34 -34.82207 149.97207 14443 ft 289 kts 235°
2026-04-26 11:35 -34.83384 149.95236 14059 ft 288 kts 235°
2026-04-26 11:35 -34.84559 149.93266 13678 ft 286 kts 235°
2026-04-26 11:35 -34.85725 149.91311 13295 ft 285 kts 235°
2026-04-26 11:35 -34.86888 149.89361 12919 ft 284 kts 235°
2026-04-26 11:36 -34.88043 149.87426 12547 ft 281 kts 235°
2026-04-26 11:36 -34.89182 149.85499 12180 ft 278 kts 237°
2026-04-26 11:36 -34.90164 149.83490 11806 ft 275 kts 242°
2026-04-26 11:36 -34.91118 149.81478 11438 ft 273 kts 241°
2026-04-26 11:37 -34.92082 149.79490 11075 ft 272 kts 240°
2026-04-26 11:37 -34.93038 149.77511 10715 ft 270 kts 241°
2026-04-26 11:37 -34.93986 149.75539 10357 ft 269 kts 241°
2026-04-26 11:37 -34.94929 149.73576 10000 ft 268 kts 241°
2026-04-26 11:38 -34.95867 149.71624 9645 ft 267 kts 241°
2026-04-26 11:38 -34.96803 149.69678 9291 ft 265 kts 241°
2026-04-26 11:38 -34.97734 149.67734 8938 ft 264 kts 241°
2026-04-26 11:38 -34.98651 149.65826 8590 ft 263 kts 241°
2026-04-26 11:39 -34.99567 149.63912 8290 ft 261 kts 241°
2026-04-26 11:39 -35.00491 149.61997 8104 ft 255 kts 240°
2026-04-26 11:39 -35.01379 149.60150 7926 ft 251 kts 241°
2026-04-26 11:39 -35.02252 149.58324 7749 ft 248 kts 241°
2026-04-26 11:40 -35.03121 149.56504 7574 ft 246 kts 241°
2026-04-26 11:40 -35.03980 149.54708 7398 ft 245 kts 241°
2026-04-26 11:40 -35.04825 149.52938 7231 ft 244 kts 241°
2026-04-26 11:40 -35.05655 149.51140 7068 ft 242 kts 247°
2026-04-26 11:41 -35.06074 149.49168 6918 ft 240 kts 265°
2026-04-26 11:42 -35.06437 149.34937 5687 ft 236 kts 252°
2026-04-26 11:43 -35.07080 149.33130 5685 ft 230 kts 245°
2026-04-26 11:43 -35.07765 149.31392 5691 ft 226 kts 246°
2026-04-26 11:43 -35.08390 149.29638 5688 ft 224 kts 249°
2026-04-26 11:43 -35.08956 149.27904 5717 ft 207 kts 249°
2026-04-26 11:44 -35.09475 149.26370 5641 ft 190 kts 248°
2026-04-26 11:44 -35.09976 149.24879 5395 ft 189 kts 249°
2026-04-26 11:44 -35.10468 149.23385 5146 ft 189 kts 249°
2026-04-26 11:44 -35.10996 149.21915 4883 ft 189 kts 240°
2026-04-26 11:45 -35.11956 149.20835 4697 ft 186 kts 211°
2026-04-26 11:45 -35.13165 149.20405 4636 ft 182 kts 185°
2026-04-26 11:45 -35.14446 149.20409 4416 ft 186 kts 181°
2026-04-26 11:45 -35.15750 149.20395 4170 ft 188 kts 185°
2026-04-26 11:46 -35.17045 149.20186 3919 ft 188 kts 192°
2026-04-26 11:46 -35.18312 149.19783 3665 ft 188 kts 197°
2026-04-26 11:46 -35.19597 149.19493 3413 ft 188 kts 188°
2026-04-26 11:46 -35.20904 149.19404 3169 ft 187 kts 182°
2026-04-26 11:47 -35.22194 149.19437 3007 ft 184 kts 178°
2026-04-26 11:47 -35.23440 149.19503 2845 ft 179 kts 180°
2026-04-26 11:47 -35.24689 149.19542 2682 ft 177 kts 180°
2026-04-26 11:47 -35.25926 149.19529 2444 ft 179 kts 183°
2026-04-26 11:48 -35.27162 149.19485 2234 ft 178 kts 183°
2026-04-26 11:48 -35.28350 149.19459 2086 ft 169 kts 182°
2026-04-26 11:48 -35.29501 149.19437 1895 ft 158 kts 182°
2026-04-26 11:48 -35.30389 149.19428 1876 ft 76 kts 180°
2026-04-26 11:49 -35.30672 149.19376 1876 ft 32 kts 262°
2026-04-26 11:49 -35.30635 149.19105 1876 ft 33 kts 295°
2026-04-26 11:49 -35.30472 149.18922 1876 ft 33 kts 309°
2026-04-26 11:49 -35.30433 149.18776 1876 ft 0 kts 313°